{"data":{"norad_id":55757,"epoch":"2026-05-25T03:26:04.784352Z","epoch_age_seconds":62929,"freshness":"FRESH","line1":"1 55757U 23028S   26145.14311093 -.00000331  00000+0 -19971-4 0  9993","line2":"2 55757  70.0003  51.6332 0002647 270.0762  90.0094 14.98334258177491","mean_motion":14.98334258,"eccentricity":0.0002647,"inclination_deg":70.0003,"raan_deg":51.6332,"arg_perigee_deg":270.0762,"mean_anomaly_deg":90.0094,"bstar":-1.9971e-5,"rev_number":17749,"period_min":96.106726006661,"perigee_km":570.20301088904,"apogee_km":573.88243603464,"semimajor_km":6950.1797234618,"source":"CELESTRAK","updated_at":"2026-05-25T13:38:17.880845Z"}}